Weather History for KPHD - January, 2013

Change the Weather History Date:

Friday, January 25, 2013

  Actual Average Record
Temperature  
Mean Temperature 16 °F 29 °F  
Max Temperature 20 °F 38 °F 64 °F (1972)
Min Temperature 12 °F 21 °F -16 °F (1963)
Degree Days  
Heating Degree Days 49 36  
Month to date heating degree days 877 900  
Since 1 July heating degree days 2977 3061  
Cooling Degree Days 0 0  
Month to date cooling degree days 0 0  
Year to date cooling degree days 0 0  
Moisture  
Dew Point 10 °F    
Average Humidity 72    
Maximum Humidity 84    
Minimum Humidity 59    
Precipitation  
Precipitation 0.12 in 0.07 in - ()
Month to date precipitation 0.70 2.10  
Year to date precipitation 0.70 2.10  
Sea Level Pressure  
Sea Level Pressure 30.19 in    
Wind  
Wind Speed 4 mph (SE)    
Max Wind Speed 10 mph    
Max Gust Speed 14 mph    
Visibility 6 miles    
Events Snow    
T = Trace of Precipitation, MM = Missing Value Source: NWS Daily Summary

Daily Weather History Graph

Daily Weather History Graph

Search for Another Location

Airport or City:

Trip Planner

Search our weather history database for the weather conditions in past years. The results will help you decide how hot, cold, wet, or windy it might be!

Date:

Astronomy

Jan. 25, 2013 Rise Set
Actual Time 7:40 AM EST 5:35 PM EST
Civil Twilight 7:11 AM EST 6:05 PM EST
Nautical Twilight 6:38 AM EST 6:38 PM EST
Astronomical Twilight 6:06 AM EST 7:10 PM EST
Moon 4:31 PM EST (1/25) 6:19 AM EST (1/25)
Length of Visible Light 10h 53m
Length of Day
9h 54m
Waxing Gibbous, 98% of the Moon is Illuminated
Jan 25
Waxing Gibbous
Jan 26
Full
Feb 3
Last Quarter
Feb 10
New
Feb 17
First Quarter

Hourly Weather History & Observations

Time (EST) Temp. Windchill Dew Point Humidity Pressure Visibility Wind Dir Wind Speed Gust Speed Precip Events Conditions
12:53 AM 12.9 °F - 5.0 °F 71% 30.53 in 10.0 mi Calm Calm - N/A   Clear
1:53 AM 14.0 °F - 5.0 °F 67% 30.51 in 10.0 mi Calm Calm - N/A   Clear
2:53 AM 15.1 °F 7.7 °F 3.9 °F 61% 30.50 in 10.0 mi SE 4.6 mph - N/A   Clear
3:53 AM 15.1 °F 5.2 °F 3.9 °F 61% 30.46 in 10.0 mi ESE 6.9 mph - N/A   Overcast
4:53 AM 15.1 °F 6.4 °F 3.9 °F 61% 30.44 in 10.0 mi ESE 5.8 mph - N/A   Overcast
5:53 AM 15.1 °F 6.4 °F 3.0 °F 59% 30.40 in 10.0 mi ESE 5.8 mph - N/A   Overcast
6:53 AM 15.1 °F 4.2 °F 3.9 °F 61% 30.33 in 10.0 mi ESE 8.1 mph - N/A   Overcast
7:53 AM 16.0 °F 8.8 °F 3.9 °F 59% 30.32 in 10.0 mi SSE 4.6 mph - N/A   Overcast
8:53 AM 16.0 °F 4.4 °F 6.1 °F 65% 30.30 in 10.0 mi SE 9.2 mph - N/A   Overcast
9:23 AM 15.8 °F 5.1 °F 6.8 °F 68% 30.24 in 1.8 mi ESE 8.1 mph - 0.00 in Snow Light Snow
9:31 AM 15.8 °F 6.1 °F 6.8 °F 68% 30.24 in 0.8 mi ESE 6.9 mph - 0.00 in Snow Light Snow
9:53 AM 15.1 °F 6.4 °F 9.0 °F 77% 30.27 in 0.5 mi ESE 5.8 mph - 0.01 in Snow Snow
10:53 AM 15.1 °F 5.2 °F 9.0 °F 77% 30.24 in 0.8 mi SE 6.9 mph - 0.02 in Snow Light Snow
2:18 PM 17.6 °F 10.7 °F 12.2 °F 79% 30.06 in 1.0 mi ESE 4.6 mph - 0.00 in Snow Light Snow
2:26 PM 17.6 °F - 12.2 °F 79% 30.05 in 1.2 mi Calm Calm - 0.00 in Snow Light Snow
2:53 PM 18.0 °F - 12.9 °F 81% 30.09 in 2.0 mi Calm Calm - 0.00 in Snow Light Snow
3:01 PM 17.6 °F - 12.2 °F 79% 30.04 in 3.0 mi Calm Calm - 0.00 in Snow Light Snow
3:21 PM 17.6 °F - 12.2 °F 79% 30.04 in 5.0 mi Calm Calm - 0.00 in Snow Light Snow
3:44 PM 19.4 °F 14.3 °F 10.4 °F 68% 30.03 in 10.0 mi SE 3.5 mph - 0.00 in   Overcast
3:53 PM 19.0 °F 12.3 °F 10.9 °F 71% 30.08 in 10.0 mi SSE 4.6 mph - 0.00 in   Overcast
4:53 PM 19.0 °F 13.9 °F 10.9 °F 71% 30.07 in 10.0 mi SE 3.5 mph - N/A   Overcast
5:53 PM 19.0 °F - 12.0 °F 74% 30.09 in 10.0 mi Calm Calm - N/A   Overcast
6:24 PM 19.4 °F - 12.2 °F 74% 30.05 in 10.0 mi Calm Calm - N/A   Overcast
6:41 PM 19.4 °F - 12.2 °F 74% 30.04 in 9.0 mi Calm Calm - N/A   Overcast
6:53 PM 19.0 °F - 12.0 °F 74% 30.08 in 9.0 mi Calm Calm - N/A   Overcast
7:53 PM 19.0 °F - 12.9 °F 77% 30.09 in 10.0 mi Calm Calm - N/A   Overcast
8:39 PM 19.4 °F - 12.2 °F 74% 30.05 in 10.0 mi Calm Calm - N/A   Overcast
8:53 PM 19.0 °F - 12.9 °F 77% 30.09 in 10.0 mi Calm Calm - N/A   Overcast
9:53 PM 19.9 °F 14.9 °F 12.9 °F 74% 30.13 in 8.0 mi WSW 3.5 mph - 0.00 in Snow Light Snow
10:41 PM 19.4 °F - 14.0 °F 80% 30.09 in 2.0 mi Calm Calm - 0.01 in Snow Light Snow
10:53 PM 19.9 °F 13.4 °F 15.1 °F 81% 30.14 in 2.0 mi SW 4.6 mph - 0.01 in Snow Light Snow
11:19 PM 19.4 °F 14.3 °F 15.8 °F 86% 30.09 in 1.8 mi South 3.5 mph - 0.00 in Snow Light Snow
11:31 PM 19.4 °F - 15.8 °F 86% 30.09 in 2.0 mi Calm Calm - 0.00 in Snow Light Snow
11:48 PM 19.4 °F - 15.8 °F 86% 30.08 in 3.0 mi Calm Calm - 0.00 in Snow Light Snow
11:49 PM 19.9 °F - 15.1 °F 81% 30.13 in 3.0 mi Calm Calm - 0.00 in Snow Light Snow